Tracking 30703 objects as of 13-Jun-2025
HD Live streaming from Space Station
objects crossing your sky now

COSMOS 1275 DEB

Track COSMOS 1275 DEB now!
10-day predictions


NORAD ID: 42183
Int'l Code: 1981-053SX
Perigee: 908.8 km
Apogee: 985.9 km
Inclination: 82.9 °
Period: 103.8 minutes
Semi major axis: 7318 km
RCS: Unknown
Launch date: June 4, 1981
Source: Commonwealth of Independent States (former USSR) (CIS)
Launch site: PLESETSK MISSILE AND SPACE COMPLEX (PKMTR)

Note: This is SATELLITE DEBRIS
Your satellite tracking list
Your tracking list is empty




NASA's NSSDC Master Catalog

Two Line Element Set (TLE):
1 42183U 81053SX  25152.72750153  .00001891  00000-0  15936-2 0  9995
2 42183  82.9353 137.4210 0052723  82.2835  98.9477 13.86699864561876
Source of the keplerian elements: AFSPC